Location: Iowa City
(41.6610°N, 91.5300°W)
Time: 01:19:40
(UTC-06:00)

ISS - Visible Passes

Search period start: 19 December 2014 00:00
Search period end: 29 December 2014 00:00
Orbit: 404 x 415 km, 51.6° (Epoch: 19 December)

Date Brightness Start Highest point End Pass type
(mag) Time Alt. Az. Time Alt. Az. Time Alt. Az.
19 Dec -0.9 18:34:10 10° NNW 18:35:07 15° NNW 18:35:07 15° NNW visible
20 Dec -1.3 17:43:28 10° NNW 17:45:35 16° N 17:46:30 15° NNE visible
21 Dec -1.5 18:28:59 10° NW 18:30:40 22° NNW 18:30:40 22° NNW visible
22 Dec -1.8 17:38:15 10° NW 17:40:51 21° NNE 17:42:08 17° NE visible
22 Dec -0.2 19:14:28 10° NW 19:14:54 13° WNW 19:14:54 13° WNW visible
23 Dec -3.0 18:23:35 10° NW 18:26:27 51° N 18:26:27 51° N visible
24 Dec -2.6 17:32:44 10° NW 17:35:46 34° NNE 17:38:09 14° E visible
24 Dec -0.8 19:09:21 10° WNW 19:10:57 22° W 19:10:57 22° W visible
25 Dec -2.9 18:18:08 10° WNW 18:21:23 60° SW 18:22:53 28° SSE visible
26 Dec -3.4 17:27:02 10° NW 17:30:19 73° NE 17:33:35 10° ESE visible
26 Dec -0.2 19:04:55 10° WSW 19:06:28 13° SW 19:08:00 10° SSW visible
27 Dec -0.9 18:12:51 10° W 18:15:32 23° SW 18:18:12 10° S visible
28 Dec -2.0 17:21:20 10° WNW 17:24:28 43° SW 17:27:35 10° SSE visible
